[[{"header":{"parameterUnit":"m.s-1","parameterCategory":2,"la1":30.2991,"la2":30.254,"lo1":-89.0895,"lo2":-89.0444,"dy":0.0017,"dx":0.0017,"nx":28,"ny":28,"refTime":"2023-09-14T03:00:00:Z","depth":"0","parameterNumber":2,"parameterNumberName":"U-component_of_CURRENTS"},"data":[0,0,0,0,0,0,0,0,0,0,0,0,0,0,0,0,0,0,0,0,0,0,0,0,0,0,0,0,0,0,0,0,0,0,0,0,0,0,0,0,0,0,0,0,0,0,0,0,0,0,0,0,0,0,0,0,0,0,0.2069,0.2068,0,0.1991,0.199,0.199,0.1948,0.1947,0.1947,0.1946,0.1995,0.1996,0.1998,0,0,0,0,0,0,0,0,0,0,0,0,0,0.2209,0.2207,0.2069,0.2068,0.2066,0.1991,0.199,0.1989,0.1948,0.1947,0.1947,0.1946,0.1994,0.1996,0.1998,0,0,0,0,0,0,0,0,0,0,0,0,0,0.2145,0.2207,0.2069,0.2034,0.203,0.1991,0.199,0.1989,0.1948,0.1947,0.1947,0.1946,0.1993,0.1996,0.1998,0.2026,0,0,0.2006,0.2007,0,0,0,0,0,0,0,0,0.2149,0.214,0.204,0.2036,0.2032,0.1975,0.2057,0.2007,0.1948,0.1983,0.1946,0.1946,0.1998,0.2,0.199,0.2028,0.203,0.2006,0.2008,0.2009,0.2009,0,0,0,0,0,0,0,0.2153,0.2143,0.2042,0.2039,0.2034,0.2031,0.2022,0.2047,0.2,0.198,0.1975,0.1961,0.1997,0.1987,0.1991,0.2031,0.2006,0.2008,0.201,0.2011,0.2144,0.2146,0,0,0,0,0,0,0.2155,0.2147,0.2044,0.2039,0.2086,0.2029,0.2018,0.1997,0.1997,0.1994,0.1962,0.196,0.1984,0.1988,0.1993,0.2053,0.2009,0.2011,0.2012,0.2142,0.2144,0.2147,0,0,0,0,0,0,0.2158,0.2146,0.2047,0.2089,0.2076,0.2026,0.2003,0.1996,0.1984,0.1981,0.1982,0.1958,0.1983,0.1989,0.202,0.2054,0.2012,0.2014,0.214,0.2143,0.2146,0.2157,0,0,0,0,0,0,0.2162,0.2147,0.2143,0.2089,0.2074,0.2029,0.2003,0.1994,0.1975,0.1971,0.1979,0.1982,0.1983,0.2016,0.2022,0.2056,0.2016,0.2137,0.2141,0.2145,0.2154,0.216,0.2165,0,0,0,0,0,0.2167,0.216,0.2143,0.2131,0.2065,0.2029,0.2022,0.1987,0.1976,0.1975,0.1982,0.1982,0.2046,0.2019,0.2026,0.2062,0.2135,0.214,0.2144,0.2151,0.2159,0.2165,0,0,0,0,0,0,0.2231,0.2153,0.2133,0.2106,0.2072,0.202,0.2018,0.1992,0.1993,0.2,0.1996,0.2001,0.2042,0.2057,0.2027,0.2116,0.2096,0.2102,0.2099,0.2106,0.2112,0.209,0.2018,0,0,0,0,0,0.2239,0.2202,0.2146,0.2126,0.2114,0.2069,0.2053,0.2028,0.2014,0.2012,0.2007,0.2031,0.2068,0.2088,0.2111,0.2157,0.2174,0.2191,0.2196,0.2201,0.2191,0.224,0.2248,0.2162,0.2162,0.2162,0,0,0.2252,0.221,0.2187,0.2135,0.2111,0.2095,0.2059,0.2039,0.2031,0.2023,0.2025,0.2044,0.2084,0.2127,0.215,0.2143,0.2242,0.2207,0.221,0.2197,0.2246,0.2254,0.2261,0.2165,0.2164,0.2164,0,0,0.226,0.2233,0.2205,0.2183,0.2142,0.2122,0.2118,0.2069,0.2059,0.2063,0.2067,0.2096,0.2135,0.2162,0.2189,0.2245,0.2265,0.2272,0.2286,0.2334,0.2341,0.2347,0.2402,0.2413,0.2281,0.2281,0.2281,0,0.2285,0.2235,0.2199,0.218,0.2164,0.2136,0.2124,0.2117,0.2082,0.2087,0.2071,0.213,0.2151,0.2221,0.2236,0.2255,0.2289,0.2252,0.2339,0.2345,0.2351,0.2405,0.2417,0.2282,0.2282,0.2282,0.2282,0,0.2262,0.2238,0.2232,0.2191,0.2184,0.2168,0.2152,0.2152,0.214,0.2126,0.2166,0.2184,0.222,0.2245,0.2254,0.2323,0.2337,0.2332,0.2312,0.2359,0.2415,0.2427,0.2283,0.2283,0.2283,0.2282,0,0,0.2264,0.2219,0.2217,0.2205,0.2185,0.2174,0.2193,0.2191,0.2207,0.2195,0.2223,0.2265,0.2265,0.2295,0.2319,0.2353,0.2425,0.236,0.2362,0.2397,0.2547,0.2534,0.2546,0.2438,0.2439,0.2441,0.2576,0,0.2254,0.2226,0.2205,0.2196,0.2186,0.2187,0.2203,0.2212,0.2224,0.2251,0.2282,0.2322,0.2294,0.2326,0.2353,0.2412,0.2454,0.2389,0.251,0.2513,0.2481,0.2558,0.2425,0.2532,0.2588,0.259,0.2591,0,0.2227,0.2212,0.2198,0.2195,0.2193,0.2192,0.2226,0.2234,0.2286,0.2301,0.2341,0.2368,0.2431,0.2399,0.2495,0.246,0.25,0.2531,0.2537,0.2522,0.2522,0.2492,0.2551,0.2467,0.2609,0.2608,0.2606,0,0.223,0.2208,0.2198,0.2192,0.219,0.2197,0.2207,0.2247,0.2277,0.2344,0.2388,0.2443,0.2493,0.2541,0.2594,0.256,0.2702,0.267,0.2697,0.2698,0.2604,0.2593,0.2573,0.2737,0.2737,0.2737,0.2736,0,0.2214,0.2205,0.2196,0.2187,0.2207,0.2198,0.2232,0.226,0.2314,0.2374,0.2412,0.2482,0.2529,0.2612,0.2642,0.2715,0.2747,0.2713,0.2734,0.2608,0.2597,0.2533,0.2489,0.2742,0.2741,0.274,0.2739,0,0.2212,0.2196,0.2196,0.2197,0.2204,0.2222,0.2257,0.2292,0.233,0.242,0.2454,0.2539,0.2645,0.2702,0.2803,0.2785,0.2772,0.2874,0.2726,0.2727,0.2636,0.2599,0.2526,0.2461,0.2919,0.2919,0.2919,0,0.2203,0.2199,0.222,0.2243,0.224,0.2262,0.2293,0.2315,0.2358,0.246,0.252,0.2635,0.2713,0.2849,0.2861,0.293,0.282,0.283,0.2723,0.2626,0.2602,0.2486,0.2426,0.262,0.2618,0.2617,0.2615,0,0.2208,0.222,0.2231,0.2278,0.2307,0.2332,0.2366,0.2394,0.2437,0.2492,0.2577,0.2639,0.2768,0.2759,0.2837,0.2855,0.2664,0.2798,0.2729,0.2394,0.2234,0.2182,0.2549,0.26,0.2602,0.2603,0.2604,0.2604,0.223,0.2253,0.228,0.2313,0.2352,0.2372,0.2361,0.2402,0.2434,0.2469,0.2576,0.2606,0.2629,0.271,0.271,0.2601,0.2607,0.2493,0.2471,0.2375,0.2245,0.2589,0.264,0.2642,0.2643,0.2645,0.2646,0,0.2255,0.2273,0.2314,0.2335,0.2349,0.2368,0.2389,0.2348,0.2341,0.2418,0.2453,0.2446,0.2424,0.2423,0.2351,0.2261,0.2145,0.2201,0.1983,0.1955,0.2293,0.2211,0.2131,0.2131,0.2131,0.2131,0.2131,0.2132,0.2273,0.2297,0.23,0.2305,0.2312,0.227,0.2249,0.221,0.2219,0.2165,0.214,0.2172,0.2177,0.212,0.1993,0.1959,0.1806,0.1727,0.1758,0.1966,0.199,0.2012,0.1924,0.1786,0.1786,0.1309,0.1306,0.1303]},{"header":{"parameterUnit":"m.s-1","parameterCategory":2,"la1":30.2991,"la2":30.254,"lo1":-89.0895,"lo2":-89.0444,"dy":0.0017,"dx":0.0017,"nx":28,"ny":28,"refTime":"2023-09-14T03:00:00:Z","depth":"0","parameterNumber":3,"parameterNumberName":"V-component_of_CURRENTS"},"data":[0,0,0,0,0,0,0,0,0,0,0,0,0,0,0,0,0,0,0,0,0,0,0,0,0,0,0,0,0,0,0,0,0,0,0,0,0,0,0,0,0,0,0,0,0,0,0,0,0,0,0,0,0,0,0,0,0,0,0.0228,0.0229,0,0.0218,0.0217,0.0217,0.0181,0.018,0.018,0.018,0.0072,0.007,0.0068,0,0,0,0,0,0,0,0,0,0,0,0,0,0.0123,0.0125,0.0228,0.0229,0.0229,0.0218,0.0217,0.0216,0.0181,0.018,0.018,0.018,0.0073,0.007,0.0067,0,0,0,0,0,0,0,0,0,0,0,0,0,0.0142,0.0126,0.0228,0.0213,0.0212,0.0218,0.0217,0.0216,0.0181,0.018,0.018,0.0179,0.0074,0.0071,0.0067,0.0054,0,0,0.0055,0.0054,0,0,0,0,0,0,0,0,0.0141,0.0145,0.0215,0.0214,0.0213,0.0204,0.0141,0.0159,0.0181,0.0188,0.018,0.0179,0.0111,0.0104,0.0098,0.0049,0.0045,0.0055,0.0053,0.0051,0.005,0,0,0,0,0,0,0,0.0139,0.0145,0.0219,0.0216,0.0215,0.0175,0.0177,0.0144,0.0147,0.0187,0.0186,0.0192,0.0109,0.0102,0.0095,0.0043,0.0055,0.0052,0.0049,0.0048,-0.0009,-0.0008,0,0,0,0,0,0,0.0157,0.0144,0.022,0.0219,0.018,0.0178,0.018,0.0204,0.0149,0.0143,0.0193,0.0191,0.0108,0.0099,0.0091,0.0084,0.0051,0.0048,0.0045,-0.0009,-0.0009,-0.0008,0,0,0,0,0,0,0.0155,0.0164,0.022,0.0184,0.0189,0.0182,0.0207,0.0204,0.0199,0.0156,0.0146,0.0192,0.0108,0.0096,0.0072,0.0079,0.0046,0.0042,-0.001,-0.0009,-0.0008,0.0063,0,0,0,0,0,0,0.0152,0.0164,0.0178,0.0186,0.0192,0.0227,0.0208,0.0204,0.0206,0.0203,0.0152,0.0141,0.0106,0.0078,0.0068,0.0074,0.0039,-0.0011,-0.001,-0.0009,0.006,0.0067,0.0073,0,0,0,0,0,0.0148,0.0175,0.018,0.0188,0.0216,0.0228,0.0227,0.0215,0.0207,0.0207,0.0179,0.0143,0.008,0.0075,0.0064,0.0068,-0.0012,-0.001,-0.0009,0.0057,0.0066,0.0073,0,0,0,0,0,0,0.0123,0.0175,0.018,0.0217,0.0224,0.0224,0.0227,0.0221,0.02,0.0195,0.015,0.0138,0.012,0.0087,0.0084,0.0058,0.0028,0.0028,0.0083,0.009,0.0096,0.0109,0.0036,0,0,0,0,0,0.0131,0.0173,0.0196,0.0223,0.0233,0.0231,0.0233,0.0228,0.0217,0.0208,0.0176,0.0143,0.0118,0.0099,0.007,0.0053,0.0041,0.005,0.0056,0.0062,0.0065,0.0068,0.0075,-0.0002,-0.0002,-0.0002,0,0,0.0124,0.0162,0.018,0.0222,0.0227,0.0243,0.0229,0.0241,0.0245,0.0198,0.0188,0.0161,0.012,0.0105,0.0094,0.0078,0.0079,0.0064,0.0069,0.0069,0.007,0.0078,0.0084,-0.0001,-0.0001,-0.0001,0,0,0.0141,0.0171,0.0212,0.0225,0.0251,0.0251,0.0259,0.0263,0.0257,0.025,0.0222,0.0206,0.0161,0.0141,0.0124,0.0146,0.0113,0.0134,0.0172,0.0175,0.0181,0.0187,0.019,0.0195,0.0136,0.0136,0.0136,0,0.013,0.0191,0.0217,0.0252,0.0264,0.026,0.0283,0.0278,0.0269,0.0272,0.0254,0.0219,0.018,0.0174,0.0182,0.016,0.0158,0.0147,0.0184,0.0189,0.0193,0.0195,0.02,0.0139,0.0139,0.0139,0.0138,0,0.0178,0.0215,0.0236,0.0288,0.0298,0.0317,0.0322,0.0326,0.0319,0.0314,0.0311,0.0273,0.0254,0.0241,0.0214,0.0228,0.0216,0.0195,0.0168,0.0206,0.0205,0.0209,0.0145,0.0143,0.0142,0.0141,0,0,0.019,0.0259,0.0266,0.0294,0.032,0.0338,0.0349,0.0367,0.0386,0.0365,0.0392,0.0347,0.0335,0.0315,0.0286,0.0284,0.0311,0.0257,0.0255,0.0265,0.0325,0.0317,0.032,0.0301,0.0302,0.0302,0.0315,0,0.0219,0.0292,0.0314,0.0358,0.0393,0.0392,0.0409,0.0418,0.0418,0.0439,0.0413,0.0419,0.0361,0.0366,0.0353,0.0326,0.0323,0.031,0.0281,0.028,0.0273,0.0324,0.0319,0.033,0.0318,0.0319,0.0319,0,0.0268,0.0313,0.0368,0.0419,0.0433,0.0449,0.0486,0.05,0.0517,0.0522,0.0519,0.0503,0.0498,0.0451,0.0415,0.0412,0.0373,0.0347,0.0347,0.0316,0.0279,0.0287,0.0337,0.0229,0.0325,0.0324,0.0324,0,0.029,0.0353,0.0401,0.0416,0.0465,0.0485,0.0506,0.0527,0.0561,0.0585,0.0622,0.0591,0.0603,0.0548,0.0484,0.0457,0.0458,0.0409,0.0364,0.0362,0.0339,0.0334,0.0284,0.039,0.039,0.039,0.039,0,0.0331,0.0371,0.0417,0.0445,0.0505,0.052,0.0578,0.0597,0.064,0.0706,0.0672,0.0729,0.0631,0.0617,0.0533,0.0472,0.0492,0.0385,0.0371,0.0364,0.0362,0.0249,0.0199,0.039,0.039,0.039,0.039,0,0.0362,0.0389,0.0453,0.0505,0.0525,0.057,0.064,0.0686,0.0717,0.0808,0.083,0.0843,0.0832,0.0734,0.0661,0.055,0.0435,0.0455,0.0455,0.0441,0.0273,0.0227,0.0191,0.0151,0.04,0.04,0.04,0,0.0392,0.0426,0.0498,0.0541,0.0569,0.0632,0.0683,0.0726,0.0786,0.0894,0.0956,0.0975,0.1017,0.0902,0.0723,0.0584,0.0475,0.0456,0.039,0.0279,0.0218,0.0191,0.0157,0.0389,0.0389,0.0389,0.0389,0,0.0444,0.0463,0.0512,0.0597,0.0659,0.0734,0.0811,0.0872,0.0945,0.1032,0.1158,0.1209,0.1116,0.099,0.0778,0.0656,0.0389,0.0449,0.0337,0.0215,0.0181,0.0131,0.0362,0.0388,0.0388,0.0388,0.0388,0.0388,0.0479,0.0522,0.058,0.0659,0.0736,0.083,0.0898,0.099,0.1107,0.1251,0.1299,0.1394,0.119,0.0917,0.0748,0.0388,0.0404,0.0255,0.0213,0.02,0.0147,0.038,0.0386,0.0386,0.0386,0.0386,0.0386,0,0.0522,0.0563,0.0639,0.0735,0.082,0.0852,0.0981,0.1055,0.1199,0.1346,0.1458,0.1417,0.1166,0.0875,0.0421,0.0185,0.0096,0.0051,-0.0004,-0.0026,0.018,0.0163,0.0118,0.0118,0.0118,0.0119,0.0119,0.0119,0.0548,0.0614,0.0647,0.0782,0.0853,0.097,0.1044,0.1169,0.1286,0.1448,0.1515,0.1555,0.132,0.0596,0.0078,-0.0049,-0.0194,-0.0215,-0.0281,-0.0174,-0.0159,-0.0145,-0.0175,-0.029,-0.029,-0.0473,-0.0475,-0.0477]}],[{"header":{"parameterUnit":"m.s-1","parameterCategory":2,"la1":30.2991,"la2":30.254,"lo1":-89.0895,"lo2":-89.0444,"dy":0.0017,"dx":0.0017,"nx":28,"ny":28,"refTime":"2023-09-14T03:00:00:Z","depth":"2","parameterNumber":2,"parameterNumberName":"U-component_of_CURRENTS"},"data":[0,0,0,0,0,0,0,0,0,0,0,0,0,0,0,0,0,0,0,0,0,0,0,0,0,0,0,0,0,0,0,0,0,0,0,0,0,0,0,0,0,0,0,0,0,0,0,0,0,0,0,0,0,0,0,0,0,0,0.1613,0.1614,0,0.1623,0.1623,0.1623,0.1622,0.1622,0.1622,0.1622,0.1613,0.1613,0.1613,0,0,0,0,0,0,0,0,0,0,0,0,0,0.1602,0.1602,0.1613,0.1614,0.1614,0.1623,0.1623,0.1623,0.1622,0.1622,0.1622,0.1622,0.1613,0.1613,0.1613,0,0,0,0,0,0,0,0,0,0,0,0,0,0.1607,0.1602,0.1613,0.1616,0.1616,0.1623,0.1623,0.1623,0.1622,0.1622,0.1622,0.1622,0.1613,0.1613,0.1613,0.1611,0,0,0.1612,0.1612,0,0,0,0,0,0,0,0,0.1607,0.1607,0.1615,0.1615,0.1616,0.1623,0.1616,0.1619,0.1622,0.1618,0.1622,0.1622,0.1616,0.1615,0.1615,0.1611,0.161,0.1612,0.1611,0.1611,0.1611,0,0,0,0,0,0,0,0.1606,0.1607,0.1616,0.1615,0.1616,0.1619,0.162,0.1617,0.1615,0.1618,0.1618,0.1622,0.1616,0.1615,0.1615,0.161,0.1612,0.1611,0.1611,0.1611,0.1745,0.1748,0,0,0,0,0,0,0.1608,0.1606,0.1615,0.1616,0.1613,0.162,0.162,0.1619,0.1616,0.1616,0.1622,0.1622,0.1616,0.1615,0.1614,0.165,0.1611,0.1611,0.1611,0.1741,0.1746,0.175,0,0,0,0,0,0,0.1608,0.1609,0.1615,0.1613,0.1614,0.162,0.1619,0.1619,0.1626,0.1619,0.1619,0.1629,0.1616,0.1615,0.1615,0.1648,0.1611,0.1611,0.1737,0.1742,0.1748,0.1696,0,0,0,0,0,0,0.1607,0.1608,0.1615,0.1613,0.1615,0.1622,0.1619,0.162,0.1629,0.1629,0.1625,0.1624,0.1616,0.1616,0.1615,0.1647,0.161,0.1732,0.1739,0.1746,0.1693,0.1699,0.1705,0,0,0,0,0,0.1607,0.1615,0.1616,0.1617,0.1622,0.1623,0.1624,0.1626,0.1629,0.1632,0.1629,0.1624,0.1663,0.1616,0.1615,0.1647,0.1728,0.1737,0.1745,0.1691,0.1698,0.1704,0,0,0,0,0,0,0.1621,0.1615,0.1616,0.1625,0.1626,0.1623,0.1631,0.1632,0.1632,0.1639,0.1627,0.1625,0.1644,0.1671,0.162,0.1724,0.1714,0.1722,0.1674,0.1681,0.1686,0.1679,0.161,0,0,0,0,0,0.1626,0.1627,0.1624,0.1633,0.1633,0.1634,0.1638,0.1642,0.164,0.1641,0.1636,0.1662,0.1681,0.1695,0.1709,0.1741,0.1759,0.1787,0.1792,0.1796,0.18,0.1851,0.1859,0.1777,0.1777,0.1777,0,0,0.164,0.1633,0.1639,0.1636,0.1638,0.1642,0.1636,0.1647,0.1657,0.164,0.165,0.1657,0.1692,0.1723,0.1742,0.1745,0.1831,0.1807,0.1808,0.1811,0.186,0.1867,0.1874,0.1783,0.1782,0.1781,0,0,0.1656,0.1656,0.166,0.1655,0.1658,0.166,0.1665,0.1665,0.167,0.1676,0.1682,0.1698,0.1731,0.1752,0.1772,0.1829,0.1845,0.1877,0.1899,0.1948,0.1953,0.1958,0.1972,0.1979,0.1895,0.1895,0.1895,0,0.1666,0.1667,0.1664,0.1659,0.1661,0.1668,0.1674,0.1682,0.1684,0.1697,0.1684,0.1737,0.1743,0.1791,0.1818,0.1832,0.1864,0.1846,0.1947,0.1952,0.1958,0.1972,0.198,0.1894,0.1894,0.1894,0.1894,0,0.1678,0.1679,0.168,0.1676,0.1684,0.1687,0.1697,0.1715,0.1723,0.1729,0.1761,0.176,0.1799,0.1824,0.1826,0.1899,0.1908,0.1921,0.1903,0.1961,0.1975,0.1983,0.1892,0.1892,0.1893,0.1893,0,0,0.1681,0.1685,0.1684,0.1682,0.1688,0.1694,0.1726,0.1749,0.177,0.178,0.1806,0.1832,0.1836,0.1864,0.188,0.1926,0.1968,0.1952,0.1955,0.1921,0.2068,0.2017,0.2022,0.2004,0.2006,0.2008,0.2051,0,0.1682,0.1682,0.1687,0.1697,0.1696,0.1715,0.1742,0.1774,0.1789,0.1817,0.1841,0.187,0.1854,0.1878,0.1913,0.1966,0.1995,0.1954,0.2059,0.2062,0.1971,0.2032,0.1849,0.1869,0.206,0.2061,0.2062,0,0.168,0.1679,0.1687,0.1702,0.1706,0.1722,0.1766,0.1788,0.1841,0.1861,0.1892,0.1905,0.1966,0.1946,0.2031,0.2015,0.2038,0.2065,0.2068,0.2045,0.2028,0.1855,0.1878,0.2077,0.2076,0.2075,0.2074,0,0.1672,0.1675,0.1682,0.1679,0.1705,0.1729,0.1759,0.1807,0.1835,0.1899,0.1931,0.1977,0.2024,0.2065,0.2104,0.209,0.2195,0.2177,0.2139,0.2135,0.2012,0.1993,0.2228,0.2227,0.2227,0.2227,0.2227,0,0.1652,0.1655,0.1678,0.1675,0.1707,0.1728,0.1762,0.1812,0.1866,0.1916,0.1952,0.1999,0.2067,0.2122,0.2136,0.2167,0.2218,0.2148,0.2153,0.1991,0.1971,0.2184,0.2179,0.2229,0.2228,0.2228,0.2228,0,0.1634,0.1644,0.1649,0.1679,0.1701,0.1724,0.1779,0.1802,0.1867,0.1938,0.1974,0.2056,0.2137,0.2168,0.2251,0.2214,0.2245,0.2237,0.2024,0.2003,0.2136,0.2128,0.2194,0.2193,0.2192,0.2191,0.2191,0,0.1611,0.1621,0.1655,0.1676,0.1691,0.1725,0.1761,0.1816,0.1852,0.1968,0.2017,0.2111,0.2138,0.2209,0.219,0.2186,0.2249,0.2023,0.1951,0.214,0.2138,0.2132,0.2125,0.176,0.1756,0.1753,0.175,0,0.1586,0.1611,0.161,0.1643,0.1676,0.1709,0.1769,0.1802,0.1882,0.1929,0.2019,0.2042,0.2105,0.2018,0.2015,0.1991,0.2006,0.1954,0.2232,0.18,0.1735,0.1732,0.1739,0.172,0.1723,0.1725,0.1727,0.1728,0.1564,0.1551,0.1556,0.1579,0.1624,0.1669,0.1667,0.1737,0.1765,0.181,0.1911,0.1879,0.1892,0.1779,0.1733,0.1712,0.1842,0.1756,0.1765,0.1778,0.1723,0.166,0.1618,0.1621,0.1623,0.1624,0.1626,0,0.1495,0.1495,0.1506,0.1504,0.1502,0.1583,0.1642,0.1584,0.1587,0.168,0.1685,0.1516,0.1438,0.1483,0.1385,0.1374,0.1338,0.1338,0.1274,0.1306,0.1334,0.1254,0.1027,0.1025,0.1023,0.1022,0,0,0.145,0.1392,0.1372,0.134,0.1387,0.1366,0.1384,0.1357,0.1366,0.1309,0.1313,0.1351,0.1423,0.12,0.1166,0.1088,0.1187,0.1045,0.1526,0.1482,0.1508,0.1577,0.1491,0,0,0,0,0]},{"header":{"parameterUnit":"m.s-1","parameterCategory":2,"la1":30.2991,"la2":30.254,"lo1":-89.0895,"lo2":-89.0444,"dy":0.0017,"dx":0.0017,"nx":28,"ny":28,"refTime":"2023-09-14T03:00:00:Z","depth":"2","parameterNumber":3,"parameterNumberName":"V-component_of_CURRENTS"},"data":[0,0,0,0,0,0,0,0,0,0,0,0,0,0,0,0,0,0,0,0,0,0,0,0,0,0,0,0,0,0,0,0,0,0,0,0,0,0,0,0,0,0,0,0,0,0,0,0,0,0,0,0,0,0,0,0,0,0,0.0181,0.0181,0,0.0162,0.0162,0.0161,0.0139,0.0139,0.0138,0.0138,0.0058,0.0056,0.0054,0,0,0,0,0,0,0,0,0,0,0,0,0,0.013,0.0131,0.0181,0.0181,0.0181,0.0162,0.0162,0.0161,0.0139,0.0139,0.0138,0.0138,0.0059,0.0057,0.0054,0,0,0,0,0,0,0,0,0,0,0,0,0,0.0133,0.0131,0.0181,0.017,0.0169,0.0162,0.0162,0.0161,0.0139,0.0139,0.0138,0.0138,0.006,0.0057,0.0054,0.0038,0,0,0.0044,0.0043,0,0,0,0,0,0,0,0,0.0133,0.0135,0.0171,0.017,0.0169,0.0155,0.0114,0.0118,0.0139,0.0147,0.0138,0.0138,0.0087,0.0081,0.0075,0.0035,0.0031,0.0044,0.0042,0.0041,0.004,0,0,0,0,0,0,0,0.0133,0.0135,0.0171,0.0171,0.017,0.0142,0.0143,0.0115,0.0115,0.0147,0.0146,0.0148,0.0085,0.0079,0.0073,0.003,0.0044,0.0042,0.004,0.0039,-0.0039,-0.004,0,0,0,0,0,0,0.0145,0.0136,0.0172,0.0171,0.0153,0.0144,0.0144,0.0158,0.0117,0.0112,0.0148,0.0147,0.0084,0.0077,0.007,0.0058,0.0041,0.0038,0.0036,-0.0039,-0.004,-0.004,0,0,0,0,0,0,0.0144,0.0149,0.0172,0.0154,0.0155,0.0146,0.016,0.0157,0.0152,0.0119,0.0112,0.0146,0.0083,0.0075,0.0051,0.0054,0.0037,0.0034,-0.0039,-0.0039,-0.004,0.0027,0,0,0,0,0,0,0.0143,0.0149,0.0156,0.0155,0.0157,0.017,0.016,0.0157,0.0155,0.0153,0.0114,0.0107,0.0083,0.0056,0.0048,0.005,0.0032,-0.0039,-0.0039,-0.004,0.0025,0.0029,0.0032,0,0,0,0,0,0.0141,0.0154,0.0157,0.016,0.017,0.017,0.0168,0.0158,0.0155,0.0152,0.0131,0.0108,0.0047,0.0054,0.0044,0.0045,-0.0038,-0.0039,-0.0039,0.0024,0.0028,0.0032,0,0,0,0,0,0,0.013,0.0154,0.0156,0.0175,0.0173,0.0167,0.0165,0.0161,0.0143,0.014,0.0109,0.01,0.0081,0.005,0.0058,0.0019,-0.0002,-0.0004,0.0049,0.0053,0.0057,0.0072,0.0029,0,0,0,0,0,0.0135,0.0154,0.0163,0.0175,0.0178,0.0173,0.017,0.0166,0.0154,0.0146,0.0123,0.0093,0.0071,0.0053,0.0027,0.0005,-0.0012,-0.0004,0.0,0.0004,0.0008,-0.0,0.0004,-0.0042,-0.0042,-0.0042,0,0,0.0129,0.0149,0.0155,0.0174,0.0174,0.0178,0.017,0.0171,0.0173,0.0139,0.0129,0.0107,0.0068,0.005,0.0037,0.0025,0.0004,0.0003,0.0006,0.0008,-0.0,0.0004,0.0009,-0.0042,-0.0042,-0.0042,0,0,0.0136,0.0152,0.017,0.0173,0.0183,0.0181,0.0184,0.0181,0.0178,0.0168,0.0147,0.0131,0.0088,0.007,0.0053,0.0056,0.0028,0.0041,0.0068,0.0061,0.0065,0.0069,0.0048,0.0049,0.0039,0.0039,0.0039,0,0.0135,0.0159,0.0169,0.0186,0.0192,0.0186,0.0197,0.0191,0.0179,0.0182,0.0169,0.013,0.0099,0.0087,0.0089,0.0067,0.0054,0.006,0.0069,0.0072,0.0074,0.0052,0.0052,0.0042,0.0042,0.0041,0.0041,0,0.0148,0.0167,0.0177,0.0202,0.0206,0.0214,0.0216,0.0217,0.0213,0.0208,0.02,0.0167,0.0144,0.013,0.0111,0.0111,0.0093,0.0081,0.0066,0.0083,0.0058,0.0057,0.0046,0.0045,0.0044,0.0044,0,0,0.0159,0.0186,0.0189,0.0206,0.0218,0.0227,0.0235,0.0245,0.0257,0.0238,0.0253,0.0215,0.0203,0.0183,0.0157,0.0149,0.0155,0.0127,0.0125,0.012,0.0133,0.0105,0.0102,0.0152,0.0152,0.0152,0.0107,0,0.0171,0.0207,0.0214,0.0238,0.0257,0.026,0.0272,0.0277,0.0275,0.0284,0.0261,0.0259,0.022,0.0219,0.0204,0.0174,0.0157,0.0167,0.0104,0.0101,0.0087,0.0102,0.0109,0.0069,0.0106,0.0106,0.0106,0,0.0186,0.0212,0.0241,0.0277,0.0285,0.0296,0.0324,0.0334,0.034,0.0343,0.0334,0.0315,0.03,0.027,0.022,0.0231,0.0184,0.0156,0.0153,0.0105,0.0073,0.0055,0.0066,0.0105,0.0105,0.0105,0.0105,0,0.0199,0.0235,0.0263,0.0271,0.0303,0.0321,0.0339,0.0352,0.0377,0.0386,0.0406,0.0371,0.0373,0.0315,0.0245,0.0238,0.0192,0.017,0.0095,0.0092,0.0073,0.0068,0.0131,0.0131,0.0131,0.0132,0.0132,0,0.0219,0.0242,0.0273,0.0287,0.033,0.0345,0.0384,0.0401,0.043,0.0477,0.0441,0.0468,0.039,0.0351,0.0269,0.0183,0.0204,0.0103,0.0083,0.0094,0.0091,0.0101,0.0098,0.013,0.013,0.0131,0.0131,0,0.0229,0.0246,0.0284,0.0321,0.0338,0.037,0.0427,0.0456,0.0485,0.0546,0.0561,0.0551,0.0507,0.0408,0.0319,0.0225,0.0138,0.0097,0.0107,0.0089,0.0031,0.0032,0.0008,0.0006,0.0005,0.0004,0.0004,0,0.024,0.0259,0.0307,0.0335,0.0354,0.0402,0.0439,0.0482,0.0528,0.0604,0.0645,0.0624,0.061,0.0452,0.0298,0.014,0.0131,0.0037,0.0018,0.0038,0.0021,0.0024,0.0026,0.0014,0.0013,0.0013,0.0013,0,0.0259,0.0271,0.0297,0.0347,0.0392,0.0448,0.0513,0.0565,0.0636,0.0702,0.0781,0.0775,0.0633,0.0483,0.026,0.0149,0.006,0.002,0.0053,0.0044,0.0041,0.0025,0.0028,0.0008,0.0009,0.0009,0.0009,0.0009,0.0268,0.0283,0.0309,0.0364,0.0416,0.0489,0.0557,0.0636,0.0732,0.0846,0.0846,0.0845,0.0673,0.0381,0.021,0.0028,0.0029,-0.0044,-0.0041,-0.0037,-0.0029,-0.0034,-0.0079,-0.0079,-0.0079,-0.0079,-0.0079,0,0.027,0.0284,0.0328,0.0392,0.0458,0.0485,0.0604,0.068,0.0814,0.0885,0.0942,0.0768,0.0588,0.0403,0.0133,-0.0041,-0.005,-0.0093,-0.0057,-0.0053,-0.0049,-0.0039,-0.0093,-0.0093,-0.0093,-0.0094,0,0,0.0268,0.0292,0.0315,0.0415,0.0472,0.0576,0.0657,0.0772,0.0852,0.092,0.0924,0.0864,0.0637,0.0438,0.0216,0.0076,0.0049,0.0036,0.0061,0.0134,0.0141,-0.0012,0.0009,0,0,0,0,0]}],[{"header":{"parameterUnit":"m.s-1","parameterCategory":2,"la1":30.2991,"la2":30.254,"lo1":-89.0895,"lo2":-89.0444,"dy":0.0017,"dx":0.0017,"nx":28,"ny":28,"refTime":"2023-09-14T03:00:00:Z","depth":"4","parameterNumber":2,"parameterNumberName":"U-component_of_CURRENTS"},"data":[0,0,0,0,0,0,0,0,0,0,0,0,0,0,0,0,0,0,0,0,0,0,0,0,0,0,0,0,0,0,0,0,0,0,0,0,0,0,0,0,0,0,0,0,0,0,0,0,0,0,0,0,0,0,0,0,0,0,0.0807,0.0808,0,0.083,0.083,0.083,0.0831,0.0831,0.0831,0.0832,0.0798,0.0797,0.0796,0,0,0,0,0,0,0,0,0,0,0,0,0,0.0716,0.0717,0.0807,0.0808,0.0809,0.083,0.083,0.083,0.0831,0.0831,0.0832,0.0832,0.0799,0.0797,0.0796,0,0,0,0,0,0,0,0,0,0,0,0,0,0.0742,0.0718,0.0807,0.0817,0.0819,0.0831,0.083,0.083,0.083,0.0831,0.0832,0.0832,0.0799,0.0797,0.0796,0.0772,0,0,0.079,0.0789,0,0,0,0,0,0,0,0,0.0741,0.0745,0.0815,0.0817,0.0819,0.0835,0.0786,0.081,0.083,0.0818,0.0832,0.0833,0.081,0.0807,0.08,0.0771,0.0769,0.079,0.0789,0.0788,0.0787,0,0,0,0,0,0,0,0.0739,0.0743,0.0809,0.0816,0.0818,0.0805,0.0809,0.079,0.0804,0.0819,0.0821,0.0835,0.0809,0.0802,0.08,0.0769,0.079,0.0788,0.0787,0.0786,0.0751,0.0751,0,0,0,0,0,0,0.0753,0.0742,0.0808,0.081,0.0789,0.0807,0.0811,0.0823,0.0805,0.0806,0.0835,0.0836,0.0805,0.0802,0.0798,0.0813,0.0788,0.0786,0.0785,0.075,0.0751,0.0751,0,0,0,0,0,0,0.0751,0.0758,0.0807,0.0782,0.0789,0.0809,0.0822,0.0823,0.0842,0.0819,0.0817,0.0856,0.0805,0.0801,0.0816,0.081,0.0785,0.0783,0.075,0.075,0.0751,0.0814,0,0,0,0,0,0,0.0748,0.0757,0.0775,0.0783,0.0791,0.0831,0.0822,0.0824,0.0852,0.0853,0.0836,0.0832,0.0806,0.0819,0.0814,0.0807,0.0782,0.075,0.075,0.0751,0.0812,0.0817,0.0821,0,0,0,0,0,0.0744,0.0764,0.0775,0.0784,0.0813,0.0833,0.0835,0.0846,0.0853,0.0863,0.0864,0.0834,0.0816,0.0819,0.0812,0.0805,0.075,0.075,0.0751,0.081,0.0816,0.082,0,0,0,0,0,0,0.0726,0.0767,0.0779,0.0809,0.083,0.0837,0.0852,0.0862,0.087,0.0875,0.0851,0.0848,0.0854,0.0824,0.0828,0.0794,0.0771,0.077,0.0818,0.0823,0.0827,0.0856,0.078,0,0,0,0,0,0.0734,0.0768,0.0793,0.0821,0.0832,0.0846,0.086,0.087,0.0879,0.0884,0.0875,0.0859,0.0845,0.0835,0.0819,0.0808,0.0812,0.0793,0.0797,0.0801,0.082,0.0835,0.0844,0.0752,0.0752,0.0752,0,0,0.0739,0.0766,0.0786,0.0822,0.0835,0.0846,0.0854,0.0883,0.0897,0.0877,0.0894,0.0884,0.085,0.0841,0.0837,0.0819,0.0829,0.0802,0.0806,0.0822,0.0837,0.0846,0.0854,0.0752,0.0752,0.0752,0,0,0.0752,0.0784,0.0809,0.0827,0.0862,0.0867,0.0884,0.0903,0.0918,0.0942,0.0924,0.0932,0.0904,0.0884,0.0867,0.0887,0.0861,0.0858,0.0895,0.0909,0.0918,0.0925,0.0948,0.0957,0.0849,0.0849,0.0849,0,0.0746,0.0787,0.0818,0.0836,0.0853,0.0879,0.0893,0.0909,0.0934,0.0949,0.0958,0.0944,0.0928,0.0911,0.0921,0.0899,0.0905,0.0879,0.0918,0.0926,0.0932,0.0953,0.0962,0.0852,0.0852,0.0852,0.0852,0,0.0775,0.0803,0.0817,0.0848,0.0866,0.0889,0.0913,0.0935,0.0963,0.098,0.1003,0.0996,0.0989,0.0971,0.0959,0.0973,0.0963,0.0934,0.0912,0.0946,0.0965,0.0973,0.0857,0.0856,0.0855,0.0854,0,0,0.0759,0.0823,0.0826,0.0843,0.0878,0.0892,0.0919,0.0949,0.0972,0.1006,0.1041,0.1035,0.105,0.1034,0.1008,0.1021,0.1083,0.1003,0.1002,0.1039,0.1125,0.1038,0.1038,0.1059,0.106,0.1062,0.1123,0,0.0764,0.0801,0.0833,0.0859,0.0875,0.0903,0.0926,0.0959,0.0991,0.1032,0.1053,0.108,0.1064,0.1074,0.1087,0.1087,0.1107,0.107,0.1075,0.1076,0.1005,0.1046,0.1067,0.1129,0.1131,0.1132,0.1133,0,0.0776,0.0799,0.083,0.0872,0.0881,0.0904,0.0942,0.0968,0.1024,0.1052,0.1087,0.1116,0.1157,0.1143,0.1177,0.1153,0.1157,0.1155,0.1156,0.1061,0.1004,0.1084,0.1148,0.1147,0.1146,0.1145,0.1144,0,0.0752,0.0796,0.0824,0.0837,0.0883,0.0911,0.0941,0.0984,0.1015,0.1083,0.1115,0.1161,0.1205,0.1219,0.1238,0.1217,0.1276,0.1237,0.116,0.1154,0.1188,0.1179,0.1271,0.1271,0.1271,0.1271,0.1271,0,0.0741,0.0758,0.0825,0.0836,0.0867,0.0912,0.0953,0.098,0.1046,0.1075,0.1136,0.1161,0.1232,0.1272,0.1269,0.1247,0.1302,0.1188,0.1167,0.1212,0.1205,0.1195,0.1185,0.1273,0.1273,0.1272,0.1272,0,0.0701,0.0746,0.0774,0.0836,0.0859,0.0884,0.0961,0.0976,0.1049,0.1091,0.1127,0.1206,0.1249,0.1293,0.1332,0.1279,0.1269,0.1243,0.1315,0.1294,0.1133,0.1126,0.1171,0.1168,0.1166,0.1164,0.1163,0,0.0679,0.0698,0.0764,0.0767,0.0798,0.0851,0.0871,0.0963,0.0983,0.1087,0.1095,0.1195,0.1229,0.1225,0.1266,0.127,0.124,0.1233,0.1167,0.1149,0.1125,0.1121,0.1117,0.1159,0.1159,0.1158,0.1158,0,0.0617,0.0657,0.0673,0.0696,0.0722,0.0746,0.0801,0.0826,0.092,0.1009,0.105,0.1091,0.1138,0.1175,0.12,0.1185,0.1237,0.121,0.1214,0.1152,0.1136,0.1113,0.1111,0.115,0.1151,0.1152,0.1152,0,0.0562,0.0557,0.0586,0.0601,0.0623,0.0622,0.0673,0.0718,0.0778,0.092,0.0935,0.1022,0.1129,0.113,0.1138,0.1139,0.1107,0.1052,0.1063,0.1071,0.1007,0.0971,0.0932,0,0,0,0,0,0.0501,0.0476,0.0478,0.0491,0.0515,0.0536,0.06,0.0658,0.0786,0.0787,0.087,0.091,0.0954,0.1003,0.0982,0.1063,0.1091,0.1029,0.1028,0.1109,0.1118,0.1048,0,0,0,0,0,0,0.0442,0.043,0.0444,0.0399,0.0395,0.0414,0.0453,0.0536,0.0561,0.0699,0.0736,0.0843,0.0904,0.0964,0.0964,0.0977,0.095,0.1101,0.1098,0.1104,0.1112,0.1119,0.105,0,0,0,0,0]},{"header":{"parameterUnit":"m.s-1","parameterCategory":2,"la1":30.2991,"la2":30.254,"lo1":-89.0895,"lo2":-89.0444,"dy":0.0017,"dx":0.0017,"nx":28,"ny":28,"refTime":"2023-09-14T03:00:00:Z","depth":"4","parameterNumber":3,"parameterNumberName":"V-component_of_CURRENTS"},"data":[0,0,0,0,0,0,0,0,0,0,0,0,0,0,0,0,0,0,0,0,0,0,0,0,0,0,0,0,0,0,0,0,0,0,0,0,0,0,0,0,0,0,0,0,0,0,0,0,0,0,0,0,0,0,0,0,0,0,0.0175,0.0175,0,0.0164,0.0164,0.0164,0.0177,0.0177,0.0178,0.0178,0.0175,0.0174,0.0174,0,0,0,0,0,0,0,0,0,0,0,0,0,0.0169,0.017,0.0175,0.0175,0.0175,0.0164,0.0164,0.0164,0.0177,0.0177,0.0178,0.0178,0.0175,0.0174,0.0174,0,0,0,0,0,0,0,0,0,0,0,0,0,0.0167,0.017,0.0175,0.018,0.018,0.0164,0.0164,0.0164,0.0177,0.0177,0.0178,0.0179,0.0175,0.0174,0.0174,0.0154,0,0,0.0171,0.0171,0,0,0,0,0,0,0,0,0.0167,0.0167,0.0179,0.018,0.018,0.0172,0.016,0.0161,0.0176,0.0178,0.0178,0.0179,0.0174,0.0173,0.017,0.0154,0.0153,0.0171,0.0171,0.017,0.017,0,0,0,0,0,0,0,0.0167,0.0167,0.0171,0.0179,0.018,0.017,0.017,0.016,0.0172,0.0178,0.0179,0.0177,0.0175,0.017,0.017,0.0153,0.0171,0.017,0.017,0.0169,0.0153,0.0153,0,0,0,0,0,0,0.017,0.0167,0.0171,0.017,0.0175,0.0169,0.017,0.0174,0.0172,0.0173,0.0177,0.0178,0.0171,0.0171,0.017,0.017,0.017,0.0169,0.0169,0.0153,0.0153,0.0153,0,0,0,0,0,0,0.017,0.017,0.0171,0.0168,0.0168,0.0169,0.0173,0.0174,0.0175,0.0171,0.0172,0.0178,0.0172,0.0171,0.0163,0.0169,0.0169,0.0168,0.0153,0.0153,0.0153,0.0155,0,0,0,0,0,0,0.017,0.017,0.0173,0.0169,0.0168,0.0166,0.0172,0.0173,0.0172,0.0174,0.0172,0.0173,0.0172,0.0165,0.0163,0.0168,0.0168,0.0153,0.0153,0.0153,0.0155,0.0156,0.0156,0,0,0,0,0,0.0169,0.0172,0.0174,0.0174,0.0173,0.0165,0.0164,0.0167,0.0172,0.0171,0.0169,0.0173,0.0164,0.0163,0.0161,0.0167,0.0153,0.0153,0.0153,0.0155,0.0155,0.0156,0,0,0,0,0,0,0.0175,0.0174,0.0175,0.0179,0.0174,0.0168,0.0167,0.0167,0.0164,0.0167,0.0166,0.0165,0.0164,0.0162,0.0161,0.0163,0.0162,0.0162,0.0165,0.0165,0.0165,0.0169,0.0167,0,0,0,0,0,0.0176,0.0177,0.0173,0.0176,0.0174,0.0169,0.0167,0.0168,0.0164,0.0164,0.0163,0.0162,0.016,0.016,0.0157,0.0151,0.0137,0.0155,0.0156,0.0156,0.0158,0.0134,0.0132,0.0153,0.0153,0.0153,0,0,0.0176,0.0178,0.0177,0.0176,0.0173,0.0171,0.017,0.0167,0.0169,0.0163,0.0165,0.016,0.0158,0.0157,0.0156,0.0157,0.0142,0.0156,0.0156,0.0158,0.0134,0.0132,0.013,0.0154,0.0154,0.0153,0,0,0.0175,0.0181,0.0179,0.0177,0.0174,0.0172,0.0171,0.0166,0.0169,0.0164,0.0164,0.0159,0.0156,0.0156,0.0155,0.0153,0.0143,0.0158,0.0163,0.014,0.0138,0.0136,0.0109,0.0105,0.0159,0.016,0.016,0,0.0182,0.0179,0.0176,0.0176,0.0178,0.0173,0.0174,0.0172,0.0166,0.0167,0.0168,0.016,0.0156,0.0155,0.0158,0.0153,0.0138,0.0161,0.0139,0.0137,0.0135,0.0108,0.0104,0.016,0.016,0.016,0.016,0,0.0172,0.0177,0.0177,0.0179,0.0178,0.0178,0.0177,0.0178,0.018,0.0177,0.0175,0.0165,0.0163,0.0162,0.0159,0.0149,0.0141,0.014,0.0137,0.0133,0.0105,0.01,0.016,0.016,0.016,0.016,0,0,0.0175,0.0173,0.0173,0.0181,0.0182,0.0183,0.0188,0.0189,0.0196,0.0186,0.0191,0.0181,0.0175,0.0174,0.0168,0.015,0.0117,0.0141,0.014,0.0113,0.0061,0.0053,0.0047,0.0111,0.0111,0.011,0.0045,0,0.0174,0.0178,0.0175,0.0184,0.0189,0.0194,0.0202,0.0204,0.0203,0.0204,0.0192,0.0193,0.018,0.0182,0.0159,0.0133,0.0105,0.0135,0.0072,0.007,0.0061,0.0041,0.0108,0.0041,0.004,0.0039,0.0039,0,0.0164,0.0172,0.018,0.02,0.0203,0.021,0.0227,0.0233,0.0232,0.0232,0.0222,0.0212,0.0191,0.0181,0.012,0.014,0.01,0.0073,0.007,0.0059,0.0053,0.0048,0.0029,0.003,0.0031,0.0031,0.0032,0,0.0165,0.0178,0.0188,0.0193,0.0211,0.0222,0.0235,0.0241,0.0257,0.0251,0.0256,0.0223,0.0216,0.0161,0.0106,0.0111,0.0033,0.0032,-0.0018,-0.0019,0.0007,0.001,-0.0022,-0.0022,-0.0022,-0.0021,-0.0021,0,0.0165,0.0174,0.0193,0.0198,0.0225,0.0235,0.0259,0.0267,0.0282,0.0299,0.0274,0.0272,0.0211,0.0162,0.0104,0.0027,0.0026,-0.0023,-0.0037,0.0009,0.0013,0.0003,0.0007,-0.0024,-0.0023,-0.0023,-0.0022,0,0.0159,0.0168,0.0189,0.0213,0.0225,0.0246,0.0286,0.0307,0.0315,0.0334,0.0338,0.0306,0.024,0.0169,0.0079,0.0029,-0.0045,-0.0074,-0.0024,-0.0033,-0.0083,-0.0078,-0.0139,-0.014,-0.0141,-0.0141,-0.0142,0,0.0157,0.0166,0.0199,0.0222,0.0235,0.0269,0.0299,0.0324,0.0348,0.0353,0.0365,0.0312,0.0277,0.0144,0.0062,-0.006,-0.0074,-0.0115,-0.0098,-0.0088,-0.0096,-0.009,-0.0084,-0.0143,-0.0143,-0.0143,-0.0143,0,0.0159,0.0172,0.0189,0.0233,0.027,0.031,0.0351,0.0371,0.04,0.0402,0.0388,0.0323,0.0244,0.0142,0.0047,-0.0038,-0.0088,-0.0123,-0.0122,-0.0106,-0.0093,-0.0099,-0.0093,-0.0146,-0.0146,-0.0145,-0.0145,0,0.0167,0.0181,0.021,0.025,0.0298,0.0345,0.0362,0.0393,0.0417,0.0424,0.041,0.033,0.0283,0.0151,0.0063,-0.0022,-0.0042,-0.0064,-0.0067,-0.0065,-0.0022,0.0006,-0.0034,0,0,0,0,0,0.0179,0.0195,0.0229,0.0277,0.0325,0.0354,0.04,0.0416,0.0434,0.0432,0.0427,0.0354,0.0224,0.0165,0.0079,0.004,-0.0064,-0.0065,-0.0091,-0.016,-0.0157,-0.012,0,0,0,0,0,0,0.0186,0.0215,0.0227,0.0296,0.0332,0.039,0.042,0.0432,0.0431,0.043,0.0363,0.0331,0.0203,0.0274,0.0076,0.0049,0.002,-0.0126,-0.0128,-0.0162,-0.0159,-0.0157,-0.0117,0,0,0,0,0]}]]